Time,TemperatureF,DewpointF,PressureIn,WindDirection,WindDirectionDegrees,WindSpeedMPH,WindSpeedGustMPH,Humidity,HourlyPrecipIn,Conditions,Clouds,dailyrainin,SoftwareType,DateUTC
2013-04-01 00:03:00,40.8,32.1,29.88,North,355,0.0,0.0,71,0.00,RA,,0.00,WeatherDisplay:10.37,2013-04-01 05:03:00,
2013-04-01 00:08:00,40.6,31.6,29.88,NNW,340,11.5,11.5,70,0.00,RA,,0.00,WeatherDisplay:10.37,2013-04-01 05:08:00,
2013-04-01 00:13:00,40.5,31.5,29.88,NE,35,10.4,10.4,70,0.00,CLR,,0.00,WeatherDisplay:10.37,2013-04-01 05:13:00,
2013-04-01 00:18:00,40.4,31.0,29.88,NNE,12,6.9,7.5,69,0.00,CLR,,0.00,WeatherDisplay:10.37,2013-04-01 05:18:00,
2013-04-01 00:23:00,40.2,30.8,29.89,North,351,9.2,9.2,69,0.00,CLR,,0.00,WeatherDisplay:10.37,2013-04-01 05:23:00,
2013-04-01 00:28:00,40.1,30.7,29.89,North,11,11.5,11.5,69,0.00,CLR,,0.00,WeatherDisplay:10.37,2013-04-01 05:28:00,
2013-04-01 00:34:00,40.0,30.6,29.89,NNW,342,10.4,10.4,69,0.00,CLR,,0.00,WeatherDisplay:10.37,2013-04-01 05:34:00,
2013-04-01 00:39:00,39.9,30.5,29.89,NNW,347,4.6,0.0,69,0.00,CLR,,0.00,WeatherDisplay:10.37,2013-04-01 05:39:00,
2013-04-01 00:44:00,39.7,30.7,29.89,NNW,330,11.5,11.5,70,0.00,CLR,,0.00,WeatherDisplay:10.37,2013-04-01 05:44:00,
2013-04-01 00:49:00,39.6,30.6,29.89,NNW,342,9.2,9.2,70,0.00,CLR,,0.00,WeatherDisplay:10.37,2013-04-01 05:49:00,
2013-04-01 00:55:00,39.5,30.5,29.90,NNW,331,10.4,10.4,70,0.00,CLR,,0.00,WeatherDisplay:10.37,2013-04-01 05:55:00,
2013-04-01 01:00:00,39.5,30.2,29.90,NNW,339,9.2,9.2,69,0.00,CLR,,0.00,WeatherDisplay:10.37,2013-04-01 06:00:00,
2013-04-01 01:05:00,39.4,29.7,29.90,NNW,337,12.7,12.7,68,0.00,CLR,,0.00,WeatherDisplay:10.37,2013-04-01 06:05:00,
2013-04-01 01:10:00,39.3,29.6,29.90,North,355,11.5,11.5,68,0.00,CLR,,0.00,WeatherDisplay:10.37,2013-04-01 06:10:00,
2013-04-01 01:16:00,39.2,29.5,29.90,NNW,333,6.9,6.9,68,0.00,CLR,,0.00,WeatherDisplay:10.37,2013-04-01 06:16:00,
2013-04-01 01:21:00,39.1,29.1,29.90,NNE,17,12.7,12.7,67,0.00,CLR,,0.00,WeatherDisplay:10.37,2013-04-01 06:21:00,
2013-04-01 01:26:00,39.1,28.7,29.90,NW,326,11.5,11.5,66,0.00,CLR,,0.00,WeatherDisplay:10.37,2013-04-01 06:26:00,
2013-04-01 01:31:00,39.1,28.7,29.90,NW,322,10.4,10.4,66,0.00,CLR,,0.00,WeatherDisplay:10.37,2013-04-01 06:31:00,
2013-04-01 01:37:00,38.9,28.9,29.90,NNW,329,10.4,10.4,67,0.00,CLR,,0.00,WeatherDisplay:10.37,2013-04-01 06:37:00,
2013-04-01 01:42:00,38.7,28.7,29.90,NNW,337,12.7,12.7,67,0.00,CLR,,0.00,WeatherDisplay:10.37,2013-04-01 06:42:00,
2013-04-01 01:47:00,38.6,28.6,29.90,NNW,327,6.0,6.0,67,0.00,CLR,,0.00,WeatherDisplay:10.37,2013-04-01 06:47:00,
2013-04-01 01:52:00,38.6,28.6,29.90,NNW,334,9.2,9.2,67,0.00,CLR,,0.00,WeatherDisplay:10.37,2013-04-01 06:52:00,
2013-04-01 01:57:00,38.6,28.9,29.90,NW,324,10.4,10.4,68,0.00,CLR,,0.00,WeatherDisplay:10.37,2013-04-01 06:57:00,
2013-04-01 02:03:00,38.5,28.9,29.90,North,9,9.2,9.2,68,0.00,CLR,,0.00,WeatherDisplay:10.37,2013-04-01 07:03:00,
2013-04-01 02:08:00,38.4,28.8,29.90,North,5,11.5,11.5,68,0.00,CLR,,0.00,WeatherDisplay:10.37,2013-04-01 07:08:00,
2013-04-01 02:13:00,38.4,28.8,29.91,NNW,340,12.7,12.7,68,0.00,CLR,,0.00,WeatherDisplay:10.37,2013-04-01 07:13:00,
2013-04-01 02:18:00,38.4,28.8,29.91,NNW,339,9.2,9.2,68,0.00,CLR,,0.00,WeatherDisplay:10.37,2013-04-01 07:18:00,
2013-04-01 02:23:00,38.3,28.7,29.91,NW,321,12.7,12.7,68,0.00,CLR,,0.00,WeatherDisplay:10.37,2013-04-01 07:23:00,
2013-04-01 02:28:00,38.3,28.7,29.91,NNW,327,13.8,13.8,68,0.00,CLR,,0.00,WeatherDisplay:10.37,2013-04-01 07:28:00,
2013-04-01 02:33:00,38.2,28.6,29.91,NNW,327,11.5,11.5,68,0.00,CLR,,0.00,WeatherDisplay:10.37,2013-04-01 07:33:00,
2013-04-01 02:39:00,38.2,28.9,29.91,NNE,17,9.2,9.2,69,0.00,CLR,,0.00,WeatherDisplay:10.37,2013-04-01 07:39:00,
2013-04-01 02:44:00,38.1,28.8,29.91,North,350,10.4,10.4,69,0.00,CLR,,0.00,WeatherDisplay:10.37,2013-04-01 07:44:00,
2013-04-01 02:49:00,38.0,28.7,29.91,North,360,6.9,6.9,69,0.00,CLR,,0.00,WeatherDisplay:10.37,2013-04-01 07:49:00,
2013-04-01 02:54:00,38.0,28.4,29.92,NNW,334,13.8,13.8,68,0.00,CLR,,0.00,WeatherDisplay:10.37,2013-04-01 07:54:00,
2013-04-01 02:59:00,38.0,28.4,29.91,NW,323,9.0,9.0,68,0.00,CLR,,0.00,WeatherDisplay:10.37,2013-04-01 07:59:00,
2013-04-01 03:04:00,37.9,28.3,29.92,NW,309,12.0,12.0,68,0.00,CLR,,0.00,WeatherDisplay:10.37,2013-04-01 08:04:00,
2013-04-01 03:09:00,37.8,28.2,29.92,NNW,336,10.0,10.0,68,0.00,CLR,,0.00,WeatherDisplay:10.37,2013-04-01 08:09:00,
2013-04-01 03:14:00,37.7,27.7,29.92,NW,313,11.5,11.5,67,0.00,CLR,,0.00,WeatherDisplay:10.37,2013-04-01 08:14:00,
2013-04-01 03:20:00,37.6,28.0,29.93,North,5,11.5,11.5,68,0.00,CLR,,0.00,WeatherDisplay:10.37,2013-04-01 08:20:00,
2013-04-01 03:25:00,37.5,27.9,29.93,NW,314,11.5,11.5,68,0.00,CLR,,0.00,WeatherDisplay:10.37,2013-04-01 08:25:00,
2013-04-01 03:30:00,37.4,27.8,29.93,NW,305,12.7,12.7,68,0.00,CLR,,0.00,WeatherDisplay:10.37,2013-04-01 08:30:00,
2013-04-01 03:35:00,37.3,27.3,29.93,NNW,344,9.2,9.2,67,0.00,CLR,,0.00,WeatherDisplay:10.37,2013-04-01 08:35:00,
2013-04-01 03:40:00,37.2,27.6,29.93,NNW,329,11.5,11.5,68,0.00,CLR,,0.00,WeatherDisplay:10.37,2013-04-01 08:40:00,
2013-04-01 03:46:00,37.0,27.8,29.93,NNW,331,11.5,11.5,69,0.00,CLR,,0.00,WeatherDisplay:10.37,2013-04-01 08:46:00,
2013-04-01 03:51:00,36.7,27.1,29.94,NW,310,13.8,13.8,68,0.00,CLR,,0.00,WeatherDisplay:10.37,2013-04-01 08:51:00,
2013-04-01 03:56:00,36.6,27.4,29.94,NNW,341,11.5,11.5,69,0.00,CLR,,0.00,WeatherDisplay:10.37,2013-04-01 08:56:00,
2013-04-01 04:01:00,36.4,26.8,29.94,NNW,330,12.7,12.7,68,0.00,CLR,,0.00,WeatherDisplay:10.37,2013-04-01 09:01:00,
2013-04-01 04:06:00,36.2,27.0,29.94,NW,313,6.9,6.9,69,0.00,CLR,,0.00,WeatherDisplay:10.37,2013-04-01 09:06:00,
2013-04-01 04:12:00,36.1,26.9,29.94,North,349,11.5,11.5,69,0.00,CLR,,0.00,WeatherDisplay:10.37,2013-04-01 09:12:00,
2013-04-01 04:17:00,36.1,26.6,29.95,WNW,302,10.4,10.4,68,0.00,CLR,,0.00,WeatherDisplay:10.37,2013-04-01 09:17:00,
2013-04-01 04:22:00,36.1,26.6,29.95,NNW,348,9.2,9.2,68,0.00,CLR,,0.00,WeatherDisplay:10.37,2013-04-01 09:22:00,
2013-04-01 04:27:00,36.0,26.5,29.95,NNW,327,10.4,10.4,68,0.00,CLR,,0.00,WeatherDisplay:10.37,2013-04-01 09:27:00,
2013-04-01 04:32:00,36.0,26.5,29.95,NNW,333,11.5,11.5,68,0.00,CLR,,0.00,WeatherDisplay:10.37,2013-04-01 09:32:00,
2013-04-01 04:38:00,35.9,26.4,29.96,NNW,333,10.4,10.4,68,0.00,CLR,,0.00,WeatherDisplay:10.37,2013-04-01 09:38:00,
2013-04-01 04:43:00,35.9,26.4,29.96,North,350,9.2,9.2,68,0.00,CLR,,0.00,WeatherDisplay:10.37,2013-04-01 09:43:00,
2013-04-01 04:48:00,35.8,26.3,29.96,NNW,334,4.6,4.6,68,0.00,CLR,,0.00,WeatherDisplay:10.37,2013-04-01 09:48:00,
2013-04-01 04:53:00,35.7,26.2,29.96,NW,323,6.9,6.9,68,0.00,CLR,,0.00,WeatherDisplay:10.37,2013-04-01 09:53:00,
2013-04-01 04:58:00,35.6,25.7,29.96,North,351,10.4,10.4,67,0.00,CLR,,0.00,WeatherDisplay:10.37,2013-04-01 09:58:00,
2013-04-01 05:03:00,35.5,25.6,29.97,NW,318,11.5,11.5,67,0.00,CLR,,0.00,WeatherDisplay:10.37,2013-04-01 10:03:00,
2013-04-01 05:08:00,35.3,25.4,29.97,NW,320,11.0,11.0,67,0.00,CLR,,0.00,WeatherDisplay:10.37,2013-04-01 10:08:00,
2013-04-01 05:14:00,35.2,25.0,29.97,NW,317,7.0,7.0,66,0.00,CLR,,0.00,WeatherDisplay:10.37,2013-04-01 10:14:00,
2013-04-01 05:19:00,35.0,24.8,29.97,NW,319,11.5,11.5,66,0.00,CLR,,0.00,WeatherDisplay:10.37,2013-04-01 10:19:00,
2013-04-01 05:24:00,34.8,24.6,29.98,NW,326,9.2,9.2,66,0.00,CLR,,0.00,WeatherDisplay:10.37,2013-04-01 10:24:00,
2013-04-01 05:29:00,34.6,24.8,29.98,NW,325,6.9,6.9,67,0.00,CLR,,0.00,WeatherDisplay:10.37,2013-04-01 10:29:00,
2013-04-01 05:34:00,34.4,24.6,29.98,NNW,339,6.9,6.9,67,0.00,CLR,,0.00,WeatherDisplay:10.37,2013-04-01 10:34:00,
2013-04-01 05:40:00,34.4,24.6,29.98,North,355,12.7,12.7,67,0.00,CLR,,0.00,WeatherDisplay:10.37,2013-04-01 10:40:00,
2013-04-01 05:45:00,34.4,24.6,29.99,North,360,7.0,7.0,67,0.00,CLR,,0.00,WeatherDisplay:10.37,2013-04-01 10:45:00,
2013-04-01 05:50:00,34.2,24.4,29.98,NNW,338,0.0,0.0,67,0.00,CLR,,0.00,WeatherDisplay:10.37,2013-04-01 10:50:00,
2013-04-01 05:55:00,34.0,24.2,29.99,NNW,341,5.8,5.8,67,0.00,CLR,,0.00,WeatherDisplay:10.37,2013-04-01 10:55:00,
2013-04-01 06:00:00,33.9,24.1,29.99,NNW,340,11.5,11.5,67,0.00,CLR,,0.00,WeatherDisplay:10.37,2013-04-01 11:00:00,
2013-04-01 06:05:00,33.8,24.0,29.99,NW,325,5.8,5.8,67,0.00,CLR,,0.00,WeatherDisplay:10.37,2013-04-01 11:05:00,
2013-04-01 06:10:00,33.7,23.9,29.99,NNW,330,8.1,8.1,67,0.00,CLR,,0.00,WeatherDisplay:10.37,2013-04-01 11:10:00,
2013-04-01 06:15:00,33.6,23.8,30.00,NNW,337,5.8,5.8,67,0.00,CLR,,0.00,WeatherDisplay:10.37,2013-04-01 11:15:00,
2013-04-01 06:21:00,33.4,24.0,30.00,NNW,331,9.2,9.2,68,0.00,CLR,,0.00,WeatherDisplay:10.37,2013-04-01 11:21:00,
2013-04-01 06:26:00,33.3,23.9,30.00,NNW,334,5.8,5.8,68,0.00,CLR,,0.00,WeatherDisplay:10.37,2013-04-01 11:26:00,
2013-04-01 06:31:00,33.2,23.8,30.00,NNW,342,6.0,6.0,68,0.00,CLR,,0.00,WeatherDisplay:10.37,2013-04-01 11:31:00,
2013-04-01 06:36:00,33.1,24.0,30.00,North,5,3.5,3.5,69,0.00,CLR,,0.00,WeatherDisplay:10.37,2013-04-01 11:36:00,
2013-04-01 06:41:00,33.0,23.6,30.01,NNW,338,5.8,5.8,68,0.00,CLR,,0.00,WeatherDisplay:10.37,2013-04-01 11:41:00,
2013-04-01 06:47:00,32.8,23.7,30.01,North,11,9.2,9.2,69,0.00,CLR,,0.00,WeatherDisplay:10.37,2013-04-01 11:47:00,
2013-04-01 06:52:00,32.8,23.4,30.01,NNW,342,6.9,6.9,68,0.00,CLR,,0.00,WeatherDisplay:10.37,2013-04-01 11:52:00,
2013-04-01 06:57:00,32.7,23.3,30.02,NNW,343,8.1,8.1,68,0.00,CLR,,0.00,WeatherDisplay:10.37,2013-04-01 11:57:00,
2013-04-01 07:02:00,32.7,23.6,30.02,NNW,343,5.8,5.8,69,0.00,CLR,,0.00,WeatherDisplay:10.37,2013-04-01 12:02:00,
2013-04-01 07:07:00,32.7,23.3,30.02,NNW,340,5.8,5.8,68,0.00,CLR,,0.00,WeatherDisplay:10.37,2013-04-01 12:07:00,
2013-04-01 07:12:00,32.7,23.3,30.02,NNW,338,6.9,6.9,68,0.00,CLR,,0.00,WeatherDisplay:10.37,2013-04-01 12:12:00,
2013-04-01 07:17:00,32.8,23.4,30.02,NW,321,0.0,0.0,68,0.00,CLR,,0.00,WeatherDisplay:10.37,2013-04-01 12:17:00,
2013-04-01 07:22:00,32.9,23.5,30.03,North,360,6.9,6.9,68,0.00,CLR,,0.00,WeatherDisplay:10.37,2013-04-01 12:22:00,
2013-04-01 07:27:00,32.9,23.5,30.03,NNW,342,10.4,10.4,68,0.00,CLR,,0.00,WeatherDisplay:10.37,2013-04-01 12:27:00,
2013-04-01 07:32:00,33.0,23.6,30.03,North,349,4.0,4.0,68,0.00,CLR,,0.00,WeatherDisplay:10.37,2013-04-01 12:32:00,
2013-04-01 07:38:00,33.3,23.9,30.03,NNW,327,5.8,5.8,68,0.00,CLR,,0.00,WeatherDisplay:10.37,2013-04-01 12:38:00,
2013-04-01 07:39:00,33.3,23.9,30.03,North,355,4.6,4.6,68,0.00,CLR,,0.00,WeatherDisplay:10.37,2013-04-01 12:39:00,
2013-04-01 07:43:00,33.3,23.9,30.03,North,355,4.6,4.6,68,0.00,CLR,,0.00,WeatherDisplay:10.37,2013-04-01 12:43:00,
2013-04-01 07:48:00,33.3,23.9,30.03,North,355,4.6,4.6,68,0.00,CLR,,0.00,WeatherDisplay:10.37,2013-04-01 12:48:00,
2013-04-01 07:53:00,33.3,23.2,30.04,NNW,342,11.5,11.5,66,0.00,CLR,,0.00,WeatherDisplay:10.37,2013-04-01 12:53:00,
2013-04-01 07:58:00,33.3,23.2,30.04,North,355,11.5,11.5,66,0.00,CLR,,0.00,WeatherDisplay:10.37,2013-04-01 12:58:00,
2013-04-01 08:04:00,33.5,23.4,30.04,NNW,339,7.0,7.0,66,0.00,CLR,,0.00,WeatherDisplay:10.37,2013-04-01 13:04:00,
2013-04-01 08:09:00,33.8,23.6,30.05,North,355,5.8,5.8,66,0.00,CLR,,0.00,WeatherDisplay:10.37,2013-04-01 13:09:00,
2013-04-01 08:14:00,34.0,23.5,30.05,North,360,11.5,11.5,65,0.00,CLR,,0.00,WeatherDisplay:10.37,2013-04-01 13:14:00,
2013-04-01 08:19:00,34.1,23.6,30.05,NNW,348,10.4,10.4,65,0.00,CLR,,0.00,WeatherDisplay:10.37,2013-04-01 13:19:00,
2013-04-01 08:25:00,34.2,23.3,30.05,North,355,9.2,9.2,64,0.00,CLR,,0.00,WeatherDisplay:10.37,2013-04-01 13:25:00,
2013-04-01 08:30:00,34.4,23.5,30.06,NW,315,14.0,14.0,64,0.00,CLR,,0.00,WeatherDisplay:10.37,2013-04-01 13:30:00,
2013-04-01 08:35:00,34.3,23.4,30.06,North,349,11.5,11.5,64,0.00,CLR,,0.00,WeatherDisplay:10.37,2013-04-01 13:35:00,
2013-04-01 08:40:00,34.4,23.5,30.06,North,360,13.8,13.8,64,0.00,CLR,,0.00,WeatherDisplay:10.37,2013-04-01 13:40:00,
2013-04-01 08:45:00,34.5,23.2,30.06,NNE,16,12.7,12.7,63,0.00,CLR,,0.00,WeatherDisplay:10.37,2013-04-01 13:45:00,
2013-04-01 08:51:00,34.6,23.3,30.06,North,360,12.7,12.7,63,0.00,CLR,,0.00,WeatherDisplay:10.37,2013-04-01 13:51:00,
2013-04-01 08:57:00,35.3,24.3,30.06,North,360,8.0,8.0,64,0.00,CLR,,0.00,WeatherDisplay:10.37,2013-04-01 13:57:00,
2013-04-01 09:00:00,35.6,24.2,30.06,NNW,340,8.0,8.0,63,0.00,CLR,,0.00,WeatherDisplay:10.37,2013-04-01 14:00:00,
2013-04-01 09:02:00,35.6,24.2,30.06,NNW,340,8.0,8.0,63,0.00,CLR,,0.00,WeatherDisplay:10.37,2013-04-01 14:02:00,
2013-04-01 09:07:00,35.6,24.2,30.06,NNW,340,8.0,8.0,63,0.00,CLR,,0.00,WeatherDisplay:10.37,2013-04-01 14:07:00,
2013-04-01 09:12:00,35.3,24.0,30.07,North,360,9.2,9.2,63,0.00,CLR,,0.00,WeatherDisplay:10.37,2013-04-01 14:12:00,
2013-04-01 09:17:00,35.5,23.8,30.07,NW,309,9.2,9.2,62,0.00,CLR,,0.00,WeatherDisplay:10.37,2013-04-01 14:17:00,
2013-04-01 09:23:00,35.7,23.9,30.07,North,11,11.5,11.5,62,0.00,CLR,,0.00,WeatherDisplay:10.37,2013-04-01 14:23:00,
2013-04-01 09:28:00,35.9,24.1,30.07,North,355,11.5,11.5,62,0.00,CLR,,0.00,WeatherDisplay:10.37,2013-04-01 14:28:00,
2013-04-01 09:33:00,35.9,23.7,30.08,North,5,13.8,13.8,61,0.00,CLR,,0.00,WeatherDisplay:10.37,2013-04-01 14:33:00,
2013-04-01 09:38:00,36.2,24.4,30.08,North,350,11.5,11.5,62,0.00,CLR,,0.00,WeatherDisplay:10.37,2013-04-01 14:38:00,
2013-04-01 09:43:00,36.5,24.7,30.08,North,360,12.7,12.7,62,0.00,CLR,,0.00,WeatherDisplay:10.37,2013-04-01 14:43:00,
2013-04-01 09:48:00,36.4,23.8,30.08,NW,315,12.7,12.7,60,0.00,CLR,,0.00,WeatherDisplay:10.37,2013-04-01 14:48:00,
2013-04-01 09:53:00,36.5,24.7,30.08,NNW,337,11.5,11.5,62,0.00,CLR,,0.00,WeatherDisplay:10.37,2013-04-01 14:53:00,
2013-04-01 09:59:00,36.5,23.9,30.08,North,5,12.0,12.0,60,0.00,CLR,,0.00,WeatherDisplay:10.37,2013-04-01 14:59:00,
2013-04-01 10:00:00,36.6,24.0,30.08,NNW,337,11.5,11.5,60,0.00,CLR,,0.00,WeatherDisplay:10.37,2013-04-01 15:00:00,
2013-04-01 10:04:00,36.6,24.0,30.08,NNW,337,11.5,11.5,60,0.00,CLR,,0.00,WeatherDisplay:10.37,2013-04-01 15:04:00,
2013-04-01 10:09:00,36.6,24.0,30.08,NNW,337,11.5,11.5,60,0.00,CLR,,0.00,WeatherDisplay:10.37,2013-04-01 15:09:00,
2013-04-01 10:14:00,37.0,24.0,30.08,North,355,11.5,11.5,59,0.00,CLR,,0.00,WeatherDisplay:10.37,2013-04-01 15:14:00,
2013-04-01 10:19:00,37.4,24.0,30.08,NNW,329,12.7,12.7,58,0.00,CLR,,0.00,WeatherDisplay:10.37,2013-04-01 15:19:00,
2013-04-01 10:24:00,36.8,23.4,30.08,NNW,329,10.4,10.4,58,0.00,CLR,,0.00,WeatherDisplay:10.37,2013-04-01 15:24:00,
2013-04-01 10:29:00,37.0,23.2,30.09,North,360,13.8,13.8,57,0.00,CLR,,0.00,WeatherDisplay:10.37,2013-04-01 15:29:00,
2013-04-01 10:34:00,37.5,21.9,30.09,NNW,340,10.4,10.4,53,0.00,CLR,,0.00,WeatherDisplay:10.37,2013-04-01 15:34:00,
2013-04-01 10:39:00,38.1,23.3,30.09,NNW,331,11.5,11.5,55,0.00,CLR,,0.00,WeatherDisplay:10.37,2013-04-01 15:39:00,
2013-04-01 10:45:00,38.0,22.4,30.09,NW,309,13.8,13.8,53,0.00,CLR,,0.00,WeatherDisplay:10.37,2013-04-01 15:45:00,
2013-04-01 10:50:00,37.5,22.8,30.09,NW,320,16.1,16.1,55,0.00,CLR,,0.00,WeatherDisplay:10.37,2013-04-01 15:50:00,
2013-04-01 10:55:00,37.7,23.0,30.09,NW,321,17.3,17.3,55,0.00,CLR,,0.00,WeatherDisplay:10.37,2013-04-01 15:55:00,
2013-04-01 11:00:00,37.8,22.2,30.09,North,5,20.7,20.7,53,0.00,CLR,,0.00,WeatherDisplay:10.37,2013-04-01 16:00:00,
2013-04-01 11:05:00,37.7,21.2,30.10,NW,320,14.0,14.0,51,0.00,CLR,,0.00,WeatherDisplay:10.37,2013-04-01 16:05:00,
2013-04-01 11:10:00,37.7,21.6,30.09,NW,317,11.5,11.5,52,0.00,CLR,,0.00,WeatherDisplay:10.37,2013-04-01 16:10:00,
2013-04-01 11:15:00,38.5,22.8,30.09,NNW,346,9.2,9.2,53,0.00,CLR,,0.00,WeatherDisplay:10.37,2013-04-01 16:15:00,
2013-04-01 11:21:00,39.2,22.1,30.09,NNE,15,10.4,10.4,50,0.00,CLR,,0.00,WeatherDisplay:10.37,2013-04-01 16:21:00,
2013-04-01 11:26:00,39.2,21.6,30.09,NNW,340,13.8,13.8,49,0.00,CLR,,0.00,WeatherDisplay:10.37,2013-04-01 16:26:00,
2013-04-01 11:31:00,38.6,21.5,30.10,North,9,11.5,11.5,50,0.00,CLR,,0.00,WeatherDisplay:10.37,2013-04-01 16:31:00,
2013-04-01 11:37:00,38.3,21.3,30.09,NW,319,13.8,13.8,50,0.00,CLR,,0.00,WeatherDisplay:10.37,2013-04-01 16:37:00,
2013-04-01 11:42:00,38.7,21.2,30.10,North,350,10.4,10.4,49,0.00,CLR,,0.00,WeatherDisplay:10.37,2013-04-01 16:42:00,
2013-04-01 11:47:00,39.5,22.4,30.10,North,9,10.4,10.4,50,0.00,CLR,,0.00,WeatherDisplay:10.37,2013-04-01 16:47:00,
2013-04-01 11:52:00,39.8,21.7,30.10,NNW,328,13.8,13.8,48,0.00,CLR,,0.00,WeatherDisplay:10.37,2013-04-01 16:52:00,
2013-04-01 11:57:00,39.8,22.2,30.10,WNW,294,10.0,10.0,49,0.00,CLR,,0.00,WeatherDisplay:10.37,2013-04-01 16:57:00,
2013-04-01 12:03:00,39.3,20.7,30.10,NW,325,19.6,19.6,47,0.00,CLR,,0.00,WeatherDisplay:10.37,2013-04-01 17:03:00,
2013-04-01 12:08:00,39.1,21.5,30.10,NNW,331,11.0,11.0,49,0.00,CLR,,0.00,WeatherDisplay:10.37,2013-04-01 17:08:00,
2013-04-01 12:13:00,39.1,21.0,30.10,NNW,336,15.0,15.0,48,0.00,CLR,,0.00,WeatherDisplay:10.37,2013-04-01 17:13:00,
2013-04-01 12:18:00,39.5,21.4,30.10,NNW,329,11.5,11.5,48,0.00,CLR,,0.00,WeatherDisplay:10.37,2013-04-01 17:18:00,
2013-04-01 12:23:00,39.6,21.5,30.10,West,277,16.1,16.1,48,0.00,CLR,,0.00,WeatherDisplay:10.37,2013-04-01 17:23:00,
2013-04-01 12:28:00,39.5,21.9,30.10,NNW,347,12.7,12.7,49,0.00,CLR,,0.00,WeatherDisplay:10.37,2013-04-01 17:28:00,
2013-04-01 12:33:00,40.0,22.8,30.10,NNE,13,6.9,6.9,50,0.00,CLR,,0.00,WeatherDisplay:10.37,2013-04-01 17:33:00,
2013-04-01 12:39:00,40.2,21.6,30.10,NNW,332,17.3,17.3,47,0.00,CLR,,0.00,WeatherDisplay:10.37,2013-04-01 17:39:00,
2013-04-01 12:44:00,39.8,21.2,30.10,North,355,16.1,16.1,47,0.00,CLR,,0.00,WeatherDisplay:10.37,2013-04-01 17:44:00,
2013-04-01 12:49:00,40.1,22.0,30.09,NW,309,11.5,11.5,48,0.00,CLR,,0.00,WeatherDisplay:10.37,2013-04-01 17:49:00,
2013-04-01 12:54:00,40.4,21.7,30.09,NNE,13,12.7,12.7,47,0.00,CLR,,0.00,WeatherDisplay:10.37,2013-04-01 17:54:00,
2013-04-01 13:00:00,40.6,21.4,30.09,WNW,295,10.4,10.4,46,0.00,CLR,,0.00,WeatherDisplay:10.37,2013-04-01 18:00:00,
2013-04-01 13:05:00,40.9,21.7,30.09,NNW,327,17.3,17.3,46,0.00,CLR,,0.00,WeatherDisplay:10.37,2013-04-01 18:05:00,
2013-04-01 13:10:00,40.5,21.3,30.09,North,355,15.0,15.0,46,0.00,CLR,,0.00,WeatherDisplay:10.37,2013-04-01 18:10:00,
2013-04-01 13:15:00,40.3,20.6,30.09,West,277,18.4,18.4,45,0.00,CLR,,0.00,WeatherDisplay:10.37,2013-04-01 18:15:00,
2013-04-01 13:20:00,40.5,21.8,30.09,NW,309,16.1,16.1,47,0.00,CLR,,0.00,WeatherDisplay:10.37,2013-04-01 18:20:00,
2013-04-01 13:25:00,40.7,22.0,30.09,NW,322,13.8,13.8,47,0.00,CLR,,0.00,WeatherDisplay:10.37,2013-04-01 18:25:00,
2013-04-01 13:30:00,40.5,21.3,30.09,NW,322,13.8,13.8,46,0.00,CLR,,0.00,WeatherDisplay:10.37,2013-04-01 18:30:00,
2013-04-01 13:36:00,41.1,21.3,30.09,NNW,332,18.4,18.4,45,0.00,CLR,,0.00,WeatherDisplay:10.37,2013-04-01 18:36:00,
2013-04-01 13:41:00,41.2,22.0,30.09,North,349,15.0,15.0,46,0.00,CLR,,0.00,WeatherDisplay:10.37,2013-04-01 18:41:00,
2013-04-01 13:47:00,41.3,23.1,30.09,NNW,339,13.8,13.8,48,0.00,CLR,,0.00,WeatherDisplay:10.37,2013-04-01 18:47:00,
2013-04-01 13:52:00,41.2,22.0,30.09,WNW,294,16.1,16.1,46,0.00,CLR,,0.00,WeatherDisplay:10.37,2013-04-01 18:52:00,
2013-04-01 13:57:00,41.3,23.1,30.09,WNW,302,15.0,15.0,48,0.00,CLR,,0.00,WeatherDisplay:10.37,2013-04-01 18:57:00,
2013-04-01 14:02:00,41.0,21.8,30.09,NNW,336,17.3,17.3,46,0.00,CLR,,0.00,WeatherDisplay:10.37,2013-04-01 19:02:00,
2013-04-01 14:08:00,41.3,22.1,30.09,NNW,336,11.5,11.5,46,0.00,CLR,,0.00,WeatherDisplay:10.37,2013-04-01 19:08:00,
2013-04-01 14:13:00,42.5,24.2,30.08,North,355,11.5,11.5,48,0.00,CLR,,0.00,WeatherDisplay:10.37,2013-04-01 19:13:00,
2013-04-01 14:18:00,43.1,23.2,30.08,NNW,348,11.5,11.5,45,0.00,CLR,,0.00,WeatherDisplay:10.37,2013-04-01 19:18:00,
2013-04-01 14:23:00,42.6,22.7,30.09,NW,326,17.3,17.3,45,0.00,CLR,,0.00,WeatherDisplay:10.37,2013-04-01 19:23:00,
2013-04-01 14:28:00,42.5,22.1,30.08,NNE,18,12.7,12.7,44,0.00,CLR,,0.00,WeatherDisplay:10.37,2013-04-01 19:28:00,
2013-04-01 14:33:00,42.5,22.6,30.08,NW,325,15.0,15.0,45,0.00,CLR,,0.00,WeatherDisplay:10.37,2013-04-01 19:33:00,
2013-04-01 14:38:00,42.1,21.7,30.08,NW,321,20.7,20.7,44,0.00,CLR,,0.00,WeatherDisplay:10.37,2013-04-01 19:38:00,
2013-04-01 14:43:00,41.8,20.9,30.08,NW,315,20.0,20.0,43,0.00,CLR,,0.00,WeatherDisplay:10.37,2013-04-01 19:43:00,
2013-04-01 14:48:00,41.8,20.4,30.08,NNW,343,15.0,15.0,42,0.00,CLR,,0.00,WeatherDisplay:10.37,2013-04-01 19:48:00,
2013-04-01 14:54:00,42.2,20.7,30.09,North,350,13.8,13.8,42,0.00,CLR,,0.00,WeatherDisplay:10.37,2013-04-01 19:54:00,
2013-04-01 14:59:00,42.7,21.7,30.08,NW,323,12.7,12.7,43,0.00,CLR,,0.00,WeatherDisplay:10.37,2013-04-01 19:59:00,
2013-04-01 15:04:00,43.1,21.0,30.09,NNW,330,20.7,20.7,41,0.00,CLR,,0.00,WeatherDisplay:10.37,2013-04-01 20:04:00,
2013-04-01 15:09:00,42.6,19.9,30.08,West,273,18.4,18.4,40,0.00,CLR,,0.00,WeatherDisplay:10.37,2013-04-01 20:09:00,
2013-04-01 15:15:00,42.7,21.7,30.09,NNW,343,21.9,21.9,43,0.00,CLR,,0.00,WeatherDisplay:10.37,2013-04-01 20:15:00,
2013-04-01 15:20:00,42.7,20.0,30.09,NW,321,19.6,19.6,40,0.00,CLR,,0.00,WeatherDisplay:10.37,2013-04-01 20:20:00,
2013-04-01 15:25:00,42.5,21.0,30.08,WNW,287,16.1,16.1,42,0.00,CLR,,0.00,WeatherDisplay:10.37,2013-04-01 20:25:00,
2013-04-01 15:30:00,42.5,21.0,30.08,NW,309,16.1,16.1,42,0.00,CLR,,0.00,WeatherDisplay:10.37,2013-04-01 20:30:00,
2013-04-01 15:35:00,42.4,20.9,30.08,NW,309,18.4,18.4,42,0.00,CLR,,0.00,WeatherDisplay:10.37,2013-04-01 20:35:00,
2013-04-01 15:40:00,42.4,20.9,30.08,NNE,13,15.0,15.0,42,0.00,CLR,,0.00,WeatherDisplay:10.37,2013-04-01 20:40:00,
2013-04-01 15:46:00,42.9,21.4,30.08,WNW,294,17.3,17.3,42,0.00,CLR,,0.00,WeatherDisplay:10.37,2013-04-01 20:46:00,
2013-04-01 15:51:00,42.9,20.8,30.08,NNE,17,17.3,17.3,41,0.00,CLR,,0.00,WeatherDisplay:10.37,2013-04-01 20:51:00,
2013-04-01 15:56:00,43.1,21.5,30.08,NNW,327,11.0,11.0,42,0.00,CLR,,0.00,WeatherDisplay:10.37,2013-04-01 20:56:00,
2013-04-01 16:01:00,43.2,21.6,30.08,North,360,15.0,15.0,42,0.00,CLR,,0.00,WeatherDisplay:10.37,2013-04-01 21:01:00,
2013-04-01 16:06:00,43.3,20.6,30.08,WNW,300,18.4,18.4,40,0.00,CLR,,0.00,WeatherDisplay:10.37,2013-04-01 21:06:00,
2013-04-01 16:11:00,43.0,21.4,30.08,NW,315,16.0,16.0,42,0.00,CLR,,0.00,WeatherDisplay:10.37,2013-04-01 21:11:00,
2013-04-01 16:16:00,43.3,21.7,30.08,NNW,342,11.5,11.5,42,0.00,CLR,,0.00,WeatherDisplay:10.37,2013-04-01 21:16:00,
2013-04-01 16:22:00,42.8,20.7,30.08,North,355,16.1,16.1,41,0.00,CLR,,0.00,WeatherDisplay:10.37,2013-04-01 21:22:00,
2013-04-01 16:27:00,42.6,21.1,30.08,North,355,16.1,16.1,42,0.00,CLR,,0.00,WeatherDisplay:10.37,2013-04-01 21:27:00,
2013-04-01 16:32:00,42.6,21.1,30.08,NNW,331,16.1,16.1,42,0.00,CLR,,0.00,WeatherDisplay:10.37,2013-04-01 21:32:00,
2013-04-01 16:37:00,42.5,21.0,30.09,NW,319,15.0,15.0,42,0.00,CLR,,0.00,WeatherDisplay:10.37,2013-04-01 21:37:00,
2013-04-01 16:42:00,42.6,21.1,30.08,NW,306,17.3,17.3,42,0.00,CLR,,0.00,WeatherDisplay:10.37,2013-04-01 21:42:00,
2013-04-01 16:47:00,42.8,20.7,30.08,NNW,331,19.6,19.6,41,0.00,CLR,,0.00,WeatherDisplay:10.37,2013-04-01 21:47:00,
2013-04-01 16:52:00,42.7,21.2,30.09,NNW,347,13.8,13.8,42,0.00,CLR,,0.00,WeatherDisplay:10.37,2013-04-01 21:52:00,
2013-04-01 16:58:00,43.1,21.5,30.08,North,5,11.5,11.5,42,0.00,CLR,,0.00,WeatherDisplay:10.37,2013-04-01 21:58:00,
2013-04-01 17:03:00,42.9,20.8,30.09,NW,314,19.6,19.6,41,0.00,CLR,,0.00,WeatherDisplay:10.37,2013-04-01 22:03:00,
2013-04-01 17:08:00,43.0,22.0,30.09,NW,322,10.4,10.4,43,0.00,CLR,,0.00,WeatherDisplay:10.37,2013-04-01 22:08:00,
2013-04-01 17:13:00,42.9,20.8,30.09,NW,311,11.5,11.5,41,0.00,CLR,,0.00,WeatherDisplay:10.37,2013-04-01 22:13:00,
2013-04-01 17:18:00,42.9,21.4,30.09,NW,307,16.1,16.1,42,0.00,CLR,,0.00,WeatherDisplay:10.37,2013-04-01 22:18:00,
2013-04-01 17:24:00,42.7,20.0,30.09,North,351,18.4,18.4,40,0.00,CLR,,0.00,WeatherDisplay:10.37,2013-04-01 22:24:00,
2013-04-01 17:29:00,42.6,21.1,30.09,NNW,327,9.0,9.0,42,0.00,CLR,,0.00,WeatherDisplay:10.37,2013-04-01 22:29:00,
2013-04-01 17:34:00,42.5,20.4,30.09,WNW,291,19.6,19.6,41,0.00,CLR,,0.00,WeatherDisplay:10.37,2013-04-01 22:34:00,
2013-04-01 17:39:00,42.5,20.4,30.09,NW,312,20.7,20.7,41,0.00,CLR,,0.00,WeatherDisplay:10.37,2013-04-01 22:39:00,
2013-04-01 17:45:00,42.4,19.8,30.09,NW,314,20.7,20.7,40,0.00,CLR,,0.00,WeatherDisplay:10.37,2013-04-01 22:45:00,
2013-04-01 17:50:00,41.9,19.9,30.09,WNW,294,15.0,15.0,41,0.00,CLR,,0.00,WeatherDisplay:10.37,2013-04-01 22:50:00,
2013-04-01 17:55:00,42.0,20.0,30.09,WNW,299,17.3,17.3,41,0.00,CLR,,0.00,WeatherDisplay:10.37,2013-04-01 22:55:00,
2013-04-01 18:00:00,41.3,19.3,30.10,WNW,303,13.8,13.8,41,0.00,CLR,,0.00,WeatherDisplay:10.37,2013-04-01 23:00:00,
2013-04-01 18:05:00,41.6,20.2,30.09,NW,319,11.5,11.5,42,0.00,CLR,,0.00,WeatherDisplay:10.37,2013-04-01 23:05:00,
2013-04-01 18:10:00,41.8,20.4,30.10,NW,321,13.8,13.8,42,0.00,CLR,,0.00,WeatherDisplay:10.37,2013-04-01 23:10:00,
2013-04-01 18:15:00,41.5,20.1,30.10,NNW,330,16.1,16.1,42,0.00,CLR,,0.00,WeatherDisplay:10.37,2013-04-01 23:15:00,
2013-04-01 18:21:00,41.1,19.7,30.10,NW,310,11.5,11.5,42,0.00,CLR,,0.00,WeatherDisplay:10.37,2013-04-01 23:21:00,
2013-04-01 18:26:00,41.2,20.9,30.10,NW,325,10.4,10.4,44,0.00,CLR,,0.00,WeatherDisplay:10.37,2013-04-01 23:26:00,
2013-04-01 18:31:00,41.2,20.4,30.10,NW,311,11.5,11.5,43,0.00,CLR,,0.00,WeatherDisplay:10.37,2013-04-01 23:31:00,
2013-04-01 18:36:00,41.2,20.4,30.10,NW,304,12.7,12.7,43,0.00,CLR,,0.00,WeatherDisplay:10.37,2013-04-01 23:36:00,
2013-04-01 18:41:00,41.0,20.7,30.10,NNW,333,10.4,10.4,44,0.00,CLR,,0.00,WeatherDisplay:10.37,2013-04-01 23:41:00,
2013-04-01 18:47:00,40.9,20.6,30.10,NNW,336,10.4,10.4,44,0.00,CLR,,0.00,WeatherDisplay:10.37,2013-04-01 23:47:00,
2013-04-01 18:52:00,40.6,20.4,30.10,NNW,329,10.4,10.4,44,0.00,CLR,,0.00,WeatherDisplay:10.37,2013-04-01 23:52:00,
2013-04-01 18:57:00,40.4,20.7,30.10,NNW,327,9.2,9.2,45,0.00,CLR,,0.00,WeatherDisplay:10.37,2013-04-01 23:57:00,
2013-04-01 19:02:00,40.1,20.4,30.10,NNW,333,12.7,12.7,45,0.00,CLR,,0.00,WeatherDisplay:10.37,2013-04-02 00:02:00,
2013-04-01 19:07:00,39.8,20.2,30.10,NW,326,12.7,12.7,45,0.00,CLR,,0.00,WeatherDisplay:10.37,2013-04-02 00:07:00,
2013-04-01 19:12:00,39.6,20.5,30.10,NNW,334,9.2,9.2,46,0.00,CLR,,0.00,WeatherDisplay:10.37,2013-04-02 00:12:00,
2013-04-01 19:17:00,39.4,20.3,30.10,NW,325,10.4,10.4,46,0.00,CLR,,0.00,WeatherDisplay:10.37,2013-04-02 00:17:00,
2013-04-01 19:23:00,39.2,20.1,30.10,NW,325,11.5,11.5,46,0.00,CLR,,0.00,WeatherDisplay:10.37,2013-04-02 00:23:00,
2013-04-01 19:28:00,39.0,20.5,30.10,NW,320,8.0,8.0,47,0.00,CLR,,0.00,WeatherDisplay:10.37,2013-04-02 00:28:00,
2013-04-01 19:33:00,38.8,20.3,30.10,NNW,338,4.6,4.6,47,0.00,CLR,,0.00,WeatherDisplay:10.37,2013-04-02 00:33:00,
2013-04-01 19:38:00,38.7,20.2,30.10,NW,323,11.5,11.5,47,0.00,CLR,,0.00,WeatherDisplay:10.37,2013-04-02 00:38:00,
2013-04-01 19:43:00,38.5,20.5,30.11,NW,322,10.4,10.4,48,0.00,CLR,,0.00,WeatherDisplay:10.37,2013-04-02 00:43:00,
2013-04-01 19:48:00,38.3,20.3,30.11,NNW,340,10.4,10.4,48,0.00,CLR,,0.00,WeatherDisplay:10.37,2013-04-02 00:48:00,
2013-04-01 19:53:00,38.1,20.6,30.11,NW,326,5.8,5.8,49,0.00,CLR,,0.00,WeatherDisplay:10.37,2013-04-02 00:53:00,
2013-04-01 19:58:00,37.9,20.4,30.11,NNW,336,1.0,0.0,49,0.00,CLR,,0.00,WeatherDisplay:10.37,2013-04-02 00:58:00,
2013-04-01 20:03:00,37.7,20.2,30.11,NW,321,9.2,9.2,49,0.00,CLR,,0.00,WeatherDisplay:10.37,2013-04-02 01:03:00,
2013-04-01 20:09:00,37.6,20.6,30.11,NNW,329,5.8,5.8,50,0.00,CLR,,0.00,WeatherDisplay:10.37,2013-04-02 01:09:00,
2013-04-01 20:14:00,37.5,20.5,30.11,NNW,336,0.0,0.0,50,0.00,CLR,,0.00,WeatherDisplay:10.37,2013-04-02 01:14:00,
2013-04-01 20:19:00,37.3,20.3,30.11,North,350,0.0,0.0,50,0.00,CLR,,0.00,WeatherDisplay:10.37,2013-04-02 01:19:00,
2013-04-01 20:24:00,37.1,20.6,30.12,North,355,0.0,0.0,51,0.00,CLR,,0.00,WeatherDisplay:10.37,2013-04-02 01:24:00,
2013-04-01 20:29:00,36.9,20.4,30.12,NNW,338,0.0,0.0,51,0.00,CLR,,0.00,WeatherDisplay:10.37,2013-04-02 01:29:00,
2013-04-01 20:34:00,36.7,20.7,30.12,NNW,337,0.0,0.0,52,0.00,CLR,,0.00,WeatherDisplay:10.37,2013-04-02 01:34:00,
2013-04-01 20:39:00,36.5,20.5,30.12,NNW,337,0.0,0.0,52,0.00,CLR,,0.00,WeatherDisplay:10.37,2013-04-02 01:39:00,
2013-04-01 20:45:00,36.2,20.7,30.12,NNW,337,0.0,0.0,53,0.00,CLR,,0.00,WeatherDisplay:10.37,2013-04-02 01:45:00,
2013-04-01 20:50:00,36.0,20.9,30.13,NNW,337,0.0,0.0,54,0.00,CLR,,0.00,WeatherDisplay:10.37,2013-04-02 01:50:00,
2013-04-01 20:55:00,35.8,20.8,30.13,NNW,337,0.0,0.0,54,0.00,CLR,,0.00,WeatherDisplay:10.37,2013-04-02 01:55:00,
2013-04-01 21:00:00,35.6,21.0,30.13,NNW,338,0.0,0.0,55,0.00,CLR,,0.00,WeatherDisplay:10.37,2013-04-02 02:00:00,
2013-04-01 21:05:00,35.5,20.9,30.13,NNW,337,0.0,0.0,55,0.00,CLR,,0.00,WeatherDisplay:10.37,2013-04-02 02:05:00,
2013-04-01 21:10:00,35.4,21.2,30.13,NNW,338,0.0,0.0,56,0.00,CLR,,0.00,WeatherDisplay:10.37,2013-04-02 02:10:00,
2013-04-01 21:16:00,35.3,21.2,30.13,NNW,337,0.0,0.0,56,0.00,CLR,,0.00,WeatherDisplay:10.37,2013-04-02 02:16:00,
2013-04-01 21:21:00,35.1,21.0,30.14,NNW,338,0.0,0.0,56,0.00,CLR,,0.00,WeatherDisplay:10.37,2013-04-02 02:21:00,
2013-04-01 21:26:00,34.9,21.2,30.14,NNW,338,0.0,0.0,57,0.00,CLR,,0.00,WeatherDisplay:10.37,2013-04-02 02:26:00,
2013-04-01 21:32:00,34.7,21.0,30.14,NNW,337,0.0,0.0,57,0.00,CLR,,0.00,WeatherDisplay:10.37,2013-04-02 02:32:00,
2013-04-01 21:37:00,34.4,20.7,30.14,NNW,337,0.0,0.0,57,0.00,CLR,,0.00,WeatherDisplay:10.37,2013-04-02 02:37:00,
2013-04-01 21:42:00,34.4,20.7,30.14,NNW,337,0.0,0.0,57,0.00,CLR,,0.00,WeatherDisplay:10.37,2013-04-02 02:42:00,
2013-04-01 21:47:00,34.3,21.0,30.14,NNW,337,0.0,0.0,58,0.00,CLR,,0.00,WeatherDisplay:10.37,2013-04-02 02:47:00,
2013-04-01 21:52:00,34.1,20.9,30.14,NNW,337,0.0,0.0,58,0.00,CLR,,0.00,WeatherDisplay:10.37,2013-04-02 02:52:00,
2013-04-01 21:58:00,33.9,21.1,30.14,NNW,338,0.0,0.0,59,0.00,CLR,,0.00,WeatherDisplay:10.37,2013-04-02 02:58:00,
2013-04-01 22:03:00,33.7,20.9,30.14,NNW,338,0.0,0.0,59,0.00,CLR,,0.00,WeatherDisplay:10.37,2013-04-02 03:03:00,
2013-04-01 22:08:00,33.6,21.2,30.15,NNW,337,0.0,0.0,60,0.00,CLR,,0.00,WeatherDisplay:10.37,2013-04-02 03:08:00,
2013-04-01 22:13:00,33.5,21.1,30.14,NNW,337,0.0,0.0,60,0.00,CLR,,0.00,WeatherDisplay:10.37,2013-04-02 03:13:00,
2013-04-01 22:18:00,33.3,20.9,30.14,NNW,337,0.0,0.0,60,0.00,CLR,,0.00,WeatherDisplay:10.37,2013-04-02 03:18:00,
2013-04-01 22:23:00,33.2,21.2,30.14,NNW,338,0.0,0.0,61,0.00,CLR,,0.00,WeatherDisplay:10.37,2013-04-02 03:23:00,
2013-04-01 22:28:00,33.0,21.0,30.14,NNW,331,0.0,0.0,61,0.00,CLR,,0.00,WeatherDisplay:10.37,2013-04-02 03:28:00,
2013-04-01 22:34:00,32.8,20.8,30.15,NNW,332,0.0,0.0,61,0.00,CLR,,0.00,WeatherDisplay:10.37,2013-04-02 03:34:00,
2013-04-01 22:39:00,32.7,21.1,30.15,North,360,0.0,0.0,62,0.00,CLR,,0.00,WeatherDisplay:10.37,2013-04-02 03:39:00,
2013-04-01 22:44:00,32.6,21.0,30.15,North,351,0.0,0.0,62,0.00,CLR,,0.00,WeatherDisplay:10.37,2013-04-02 03:44:00,
2013-04-01 22:49:00,32.7,21.1,30.15,NNW,348,0.0,0.0,62,0.00,CLR,,0.00,WeatherDisplay:10.37,2013-04-02 03:49:00,
2013-04-01 22:54:00,32.7,20.7,30.15,NNW,348,0.0,0.0,61,0.00,CLR,,0.00,WeatherDisplay:10.37,2013-04-02 03:54:00,
2013-04-01 22:59:00,32.7,20.7,30.15,NNW,329,0.0,0.0,61,0.00,CLR,,0.00,WeatherDisplay:10.37,2013-04-02 03:59:00,
2013-04-01 23:00:00,32.7,20.7,30.15,NNW,329,0.0,0.0,61,0.00,CLR,,0.00,WeatherDisplay:10.37,2013-04-02 04:00:00,
2013-04-01 23:01:00,32.7,20.7,30.15,NNW,329,0.0,0.0,61,0.00,CLR,,0.00,WeatherDisplay:10.37,2013-04-02 04:01:00,
2013-04-01 23:06:00,32.6,20.6,30.15,NNW,327,0.0,0.0,61,0.00,CLR,,0.00,WeatherDisplay:10.37,2013-04-02 04:06:00,
2013-04-01 23:12:00,32.6,20.6,30.15,NNW,330,1.2,0.0,61,0.00,CLR,,0.00,WeatherDisplay:10.37,2013-04-02 04:12:00,
2013-04-01 23:17:00,32.5,20.5,30.15,NNW,341,0.0,0.0,61,0.00,CLR,,0.00,WeatherDisplay:10.37,2013-04-02 04:17:00,
2013-04-01 23:22:00,32.4,20.4,30.14,NNW,330,0.0,0.0,61,0.00,CLR,,0.00,WeatherDisplay:10.37,2013-04-02 04:22:00,
2013-04-01 23:27:00,32.3,20.3,30.15,NNW,330,0.0,0.0,61,0.00,CLR,,0.00,WeatherDisplay:10.37,2013-04-02 04:27:00,
2013-04-01 23:32:00,32.1,20.2,30.15,NNW,327,0.0,0.0,61,0.00,CLR,,0.00,WeatherDisplay:10.37,2013-04-02 04:32:00,
2013-04-01 23:37:00,32.0,20.4,30.14,NW,323,0.0,0.2,62,0.00,CLR,,0.00,WeatherDisplay:10.37,2013-04-02 04:37:00,
2013-04-01 23:43:00,31.9,20.3,30.15,NW,323,0.0,0.3,62,0.00,CLR,,0.00,WeatherDisplay:10.37,2013-04-02 04:43:00,
2013-04-01 23:48:00,31.8,20.3,30.15,NW,323,0.0,0.0,62,0.00,CLR,,0.00,WeatherDisplay:10.37,2013-04-02 04:48:00,
2013-04-01 23:53:00,31.6,20.4,30.15,NW,323,0.0,0.0,63,0.00,CLR,,0.00,WeatherDisplay:10.37,2013-04-02 04:53:00,
2013-04-01 23:58:00,31.4,20.2,30.15,NW,321,1.2,1.2,63,0.00,CLR,,0.00,WeatherDisplay:10.37,2013-04-02 04:58:00,